Location: Finkenwalde
(53.3770°N, 14.6418°E)
Time: 06:16:32
(UTC+00:00)

Gblst 52 Del rocket - Pass Details

Date: 05 February 2023
Orbit: 805 x 1364 km, 51.5° (Epoch: 24 March)

Event Time Altitude Azimuth Distance (km) Brightness Sun altitude
Rises 16:54:59 0° 239° (WSW) 3,454 9.0 -9.7°
Reaches altitude 10° 16:57:36 10° 235° (SW) 2,466 7.9 -10.1°
Maximum altitude 17:03:07 54° 159° (SSE) 979 4.5 -10.9°
Enters shadow 17:07:30 15° 86° (E) 2,044 5.5 -11.5°
